Clear Lake, IA

2:10 PM CST on January 20, 2017 (GMT -0600)
Mason City Municipal

Weather History for KMCW - February, 2012

Change the Weather History Date:

Friday, February 3, 2012

  Actual Average Record
Temperature  
Mean Temperature 31 °F 17 °F  
Max Temperature 32 °F 26 °F 53 °F (1934)
Min Temperature 29 °F 8 °F -28 °F (1996)
Degree Days  
Heating Degree Days 34 48  
Month to date heating degree days 96 144  
Since 1 July heating degree days 4048 4755  
Cooling Degree Days 0 0  
Month to date cooling degree days 0 0  
Year to date cooling degree days 0 0  
Moisture  
Dew Point 29 °F    
Average Humidity 96    
Maximum Humidity 100    
Minimum Humidity 92    
Precipitation  
Precipitation 0.00 in 0.04 in 0.40 in (1919)
Month to date precipitation 0.00 0.10  
Year to date precipitation 0.58 0.92  
Snow  
Snow 0.00 in 0.30 in 7.00 in (1936)
Month to date snowfall 0.0 1.0  
Since 1 July snowfall 14.6 25.8  
Snow Depth 4.00 in    
Sea Level Pressure  
Sea Level Pressure 30.40 in    
Wind  
Wind Speed 11 mph (ENE)    
Max Wind Speed 20 mph    
Max Gust Speed 23 mph    
Visibility 2 miles    
Events Fog    
T = Trace of Precipitation, MM = Missing Value Source: NWS Daily Summary

Daily Weather History Graph

Daily Weather History Graph

Search for Another Location

Airport or City:

Trip Planner

Search our weather history database for the weather conditions in past years. The results will help you decide how hot, cold, wet, or windy it might be!

Date:

Astronomy

Feb. 03, 2012 Rise Set
Actual Time 7:27 AM CST 5:27 PM CST
Civil Twilight 6:56 AM CST 5:57 PM CST
Nautical Twilight 6:23 AM CST 6:31 PM CST
Astronomical Twilight 5:49 AM CST 7:05 PM CST
Moon 1:26 PM CST (2/3) 4:06 AM CST (2/3)
Length of Visible Light 11h 00m
Length of Day
10h 00m
Waxing Gibbous, 82% of the Moon is Illuminated
Feb 3
Waxing Gibbous
Feb 7
Full
Feb 14
Last Quarter
Feb 21
New
Feb 29
First Quarter

Hourly Weather History & Observations

Time (CST) Temp. Windchill Dew Point Humidity Pressure Visibility Wind Dir Wind Speed Gust Speed Precip Events Conditions
12:53 AM 28.9 °F 21.9 °F 28.0 °F 96% 30.40 in 0.2 mi East 6.9 mph - N/A Fog Light Freezing Fog
1:16 AM 28.4 °F 20.4 °F 28.4 °F 100% 30.37 in 0.5 mi ENE 8.1 mph - N/A Fog Light Freezing Fog
1:26 AM 28.4 °F 20.4 °F 28.4 °F 100% 30.37 in 0.2 mi East 8.1 mph - N/A Fog Light Freezing Fog
1:53 AM 28.9 °F 20.4 °F 28.0 °F 96% 30.38 in 0.2 mi East 9.2 mph - N/A Fog Light Freezing Fog
2:05 AM 28.4 °F 19.7 °F 28.4 °F 100% 30.37 in 0.5 mi ENE 9.2 mph - N/A Fog Light Freezing Fog
2:21 AM 28.4 °F 19.1 °F 28.4 °F 100% 30.36 in 0.2 mi ENE 10.4 mph - N/A Fog Light Freezing Fog
2:53 AM 28.9 °F 19.8 °F 28.0 °F 96% 30.38 in 0.2 mi East 10.4 mph - N/A Fog Light Freezing Fog
3:01 AM 28.4 °F 19.7 °F 28.4 °F 100% 30.37 in 0.5 mi East 9.2 mph - N/A Fog Light Freezing Fog
3:53 AM 28.9 °F 20.4 °F 28.0 °F 96% 30.38 in 0.5 mi East 9.2 mph - N/A Fog Light Freezing Fog
4:53 AM 28.9 °F 21.1 °F 28.0 °F 96% 30.40 in 0.8 mi East 8.1 mph - N/A   Mist
5:53 AM 28.9 °F 21.1 °F 28.0 °F 96% 30.42 in 0.5 mi ENE 8.1 mph - N/A Fog Light Freezing Fog
6:53 AM 28.9 °F 19.2 °F 28.0 °F 96% 30.43 in 0.8 mi NE 11.5 mph - N/A   Mist
7:19 AM 28.4 °F 18.0 °F 28.4 °F 100% 30.42 in 1.0 mi ENE 12.7 mph - N/A   Mist
7:48 AM 28.4 °F 18.0 °F 28.4 °F 100% 30.42 in 0.8 mi NE 12.7 mph - N/A   Overcast
7:53 AM 28.9 °F 18.6 °F 28.0 °F 96% 30.45 in 0.5 mi NE 12.7 mph - N/A Fog Light Freezing Fog
8:05 AM 28.4 °F 18.5 °F 28.4 °F 100% 30.41 in 0.2 mi ENE 11.5 mph - N/A Fog Light Freezing Fog
8:28 AM 28.4 °F 18.5 °F 28.4 °F 100% 30.42 in 0.5 mi ENE 11.5 mph - N/A Fog Light Freezing Fog
8:53 AM 30.0 °F 20.5 °F 28.0 °F 92% 30.45 in 0.5 mi ENE 11.5 mph - N/A Fog Light Freezing Fog
9:04 AM 30.2 °F 21.3 °F 28.4 °F 93% 30.42 in 0.2 mi ENE 10.4 mph - N/A Fog Light Freezing Fog
9:12 AM 30.2 °F 21.3 °F 28.4 °F 93% 30.42 in 0.5 mi ENE 10.4 mph - N/A Fog Light Freezing Fog
9:32 AM 30.2 °F 21.3 °F 28.4 °F 93% 30.43 in 1.0 mi ENE 10.4 mph - N/A   Overcast
9:53 AM 30.0 °F 20.5 °F 28.9 °F 96% 30.46 in 1.0 mi NE 11.5 mph - N/A   Overcast
10:53 AM 30.9 °F 22.8 °F 30.0 °F 96% 30.45 in 1.2 mi ENE 9.2 mph - N/A   Overcast
11:53 AM 30.9 °F 21.7 °F 30.0 °F 96% 30.43 in 1.5 mi ENE 11.5 mph - N/A   Overcast
12:23 PM 30.2 °F 20.8 °F 30.2 °F 100% 30.39 in 2.0 mi ENE 11.5 mph - N/A   Overcast
12:37 PM 30.2 °F 20.2 °F 30.2 °F 100% 30.38 in 1.8 mi NE 12.7 mph - N/A   Overcast
12:53 PM 30.9 °F 20.7 °F 30.0 °F 96% 30.41 in 1.8 mi ENE 13.8 mph - N/A   Overcast
1:53 PM 32.0 °F 24.2 °F 30.9 °F 96% 30.41 in 1.5 mi ENE 9.2 mph - N/A   Overcast
2:38 PM 32.0 °F 23.6 °F 30.2 °F 93% 30.38 in 2.0 mi ENE 10.4 mph - N/A   Overcast
2:53 PM 32.0 °F 22.1 °F 30.0 °F 92% 30.42 in 2.0 mi ENE 13.8 mph - N/A   Overcast
3:53 PM 32.0 °F 22.5 °F 30.0 °F 92% 30.42 in 1.8 mi NE 12.7 mph - N/A   Overcast
4:45 PM 30.2 °F 20.8 °F 30.2 °F 100% 30.38 in 2.0 mi ENE 11.5 mph - N/A   Overcast
4:53 PM 30.9 °F 21.2 °F 30.0 °F 96% 30.41 in 2.0 mi ENE 12.7 mph - N/A   Overcast
5:35 PM 30.2 °F 20.8 °F 30.2 °F 100% 30.36 in 3.0 mi East 11.5 mph - N/A   Overcast
5:53 PM 30.9 °F 22.2 °F 30.0 °F 96% 30.39 in 3.0 mi ENE 10.4 mph - N/A   Overcast
6:53 PM 30.9 °F 22.8 °F 30.0 °F 96% 30.40 in 3.0 mi NE 9.2 mph - N/A   Overcast
7:53 PM 30.9 °F 20.7 °F 28.9 °F 92% 30.41 in 4.0 mi NE 13.8 mph - N/A   Overcast
8:33 PM 30.2 °F 18.9 °F 28.4 °F 93% 30.37 in 4.0 mi NE 16.1 mph - N/A   Overcast
8:53 PM 30.9 °F 19.1 °F 28.9 °F 92% 30.40 in 4.0 mi NE 18.4 mph - N/A   Overcast
9:53 PM 30.9 °F 21.2 °F 28.9 °F 92% 30.40 in 4.0 mi NE 12.7 mph - N/A   Overcast
10:53 PM 30.0 °F 20.5 °F 28.0 °F 92% 30.39 in 4.0 mi NE 11.5 mph - N/A   Overcast
11:53 PM 30.0 °F 20.5 °F 28.0 °F 92% 30.40 in 4.0 mi NE 11.5 mph - N/A   Overcast